User: anonymous   Login
Location: Unspecified
(0.0000°N, 0.0000°E)
Time: 01:12:32
(UTC+00:00)
Language:

COSMOS 2454 - Orbit

View from above orbital plane
View from above orbital plane
View from above satellite
View from above satellite

Ground track
Ground track

The orbit data is extracted from the following two-line orbital elements,

1 35635U 09039A   21023.82080678  .00000024  00000-0  62781-5 0  9995
2 35635  82.9560  80.8145 0020179 132.6032 227.6837 13.89658187583913
Epoch (UTC): 23 January 2021 19:41:57
Eccentricity: 0.0020179
inclination: 82.9560°
perigee height: 915 km
apogee height: 944 km
right ascension of ascending node: 80.8145°
argument of perigee: 132.6032°
revolutions per day: 13.89658187
mean anomaly at epoch: 227.6837°
orbit number at epoch: 58391

The dashed part of the orbit path shows where the satellite is in the earth's shadow,  

DLR